Regional Weather Roundup
Issued by NWS

Home | Current Version | Previous Version | Graphics & Text | Print | Product List | Glossary On
Versions: 1 2 3 4 5 6 7 8 9 10 11 12 13 14 15 16 17 18 19 20 21 22 23 24 25 26 27 28 29 30 31 32 33 34 35 36 37 38 39 40 41 42 43 44 45 46 47 48 49 50
000
ASUS43 KFSD 012002
RWRSD

WEATHER ROUNDUP FOR SOUTH DAKOTA
NATIONAL WEATHER SERVICE SIOUX FALLS SD
300 PM CDT FRI AUG 01 2014

NOTE: "FAIR" INDICATES FEW OR NO CLOUDS BELOW 12,000 FEET WITH NO
SIGNIFICANT WEATHER AND/OR OBSTRUCTIONS TO VISIBILITY.


SDZ001>005-009-010-012>017-012100-
NORTHWEST AND NORTH CENTRAL SOUTH DAKOTA

CITY           SKY/WX    TMP DP  RH WIND       PRES   REMARKS
FAITH            N/A     93  50  23 E8        30.03F
MOBRIDGE       SUNNY     88  59  37 SE14      30.02F
$$

SDZ012>016-024>037-041>051-057-063-072>074-012100-
SOUTHWEST AND SOUTH CENTRAL SOUTH DAKOTA

CITY           SKY/WX    TMP DP  RH WIND       PRES   REMARKS
RAPID CTY ARPT PTSUNNY   78  47  33 S15       30.10S
PIERRE         SUNNY     91  57  31 SE16G23   30.01F
CUSTER         MOSUNNY   81  36  19 NW10G20   30.25F
ELLSWORTH AFB  PTSUNNY   81  52  36 SW9       30.09S
PHILIP         SUNNY     96  44  16 S8        30.01F
PINE RIDGE     SUNNY     91  47  21 VRB3      30.11F
WINNER         FAIR      91  52  26 SE13      30.06F
$$

SDZ004>011-016>023-039-040-012100-
NORTHEAST SOUTH DAKOTA

CITY           SKY/WX    TMP DP  RH WIND       PRES   REMARKS
ABERDEEN       SUNNY     83  54  36 NE5       30.08S
WATERTOWN      PTSUNNY   81  53  37 W6        30.10S
SISSETON         N/A     84  60  44 N6        30.07S
$$

SDZ017-020-022-023-036>040-048>070-012100-
SOUTHEAST SOUTH DAKOTA

CITY           SKY/WX    TMP DP  RH WIND       PRES   REMARKS
SIOUX FALLS    MOSUNNY   83  56  39 CALM      30.10F
HURON          SUNNY     83  56  39 CALM      30.07F
CHAMBERLAIN    SUNNY     87  56  35 S5        30.07S
MITCHELL       SUNNY     83  59  44 SE9       30.09F
YANKTON        SUNNY     79  57  47 E7        30.10F
$$

ABBREVIATIONS USED IN REMARKS
   TC - TEMPERATURE IN CELSIUS
  WCI - WIND CHILL INDEX
   HX - HEAT INDEX
  VSB - VISIBILITY




USA.gov is the U.S. government's official web portal to all federal, state and local government web resources and services.